Lid_Strength_Index
6 8 10 8 8 9 10 10 11 8 7 7 8 8 8 7 6 5 5 5 4 4 3 2 2 1 1 1 1 0 0 -0 0 1 1 1 1 0 -0 -1 -2 -1 -2 -2
8 11 8 6 7 8 9 11 11 8 7 7 8 8 8 6 6 5 5 5 4 4 3 3 2 2 1 1 1 1 0 0 -0 0 0 0 0 -0 0 -1 -1 -2 -2 -2
12 10 6 7 7 8 12 11 11 10 8 8 9 10 10 7 6 5 5 4 4 4 4 3 3 2 2 2 2 1 1 0 0 -0 0 -0 -1 -0 0 0 0 -0 -2 -1
9 6 7 7 8 8 12 8 10 10 10 14 10 15 12 10 8 6 5 5 4 4 3 3 3 2 2 2 1 1 1 1 0 -0 0 1 1 2 1 1 0 0 -1 -1
11 8 8 9 8 6 10 8 9 10 11 10 12 13 13 11 11 9 6 5 4 4 3 3 3 2 2 1 1 1 1 1 0 0 0 1 1 1 1 1 1 0 -0 -0
7 5 6 7 6 6 6 8 9 9 9 14 13 13 14 12 10 9 6 5 4 4 3 3 2 2 2 1 1 1 1 1 0 0 0 1 1 1 2 1 1 1 0 1
8 7 6 6 8 6 7 9 13 15 18 17 12 14 13 11 9 7 6 5 4 4 4 3 3 3 2 2 2 1 2 2 1 1 1 1 1 2 2 2 1 1 3 3
11 12 7 6 10 11 9 9 12 16 14 17 13 16 12 8 7 5 5 5 4 4 3 3 3 3 2 2 2 2 2 2 2 2 2 2 1 1 1 1 1 2 2 3
11 11 8 6 7 7 8 9 6 10 9 11 14 11 8 8 9 7 6 5 5 5 4 4 4 3 3 3 2 2 2 3 2 2 2 2 1 1 1 1 2 2 2 2
9 13 7 6 5 5 7 5 9 9 14 15 11 11 13 10 10 9 8 7 6 5 5 4 4 3 3 2 2 2 2 2 2 2 2 2 1 0 0 0 1 1 2 2
6 7 7 6 7 7 7 8 7 8 9 12 12 10 7 9 9 8 8 7 6 6 5 5 4 3 3 2 2 2 2 2 2 2 2 2 1 1 0 1 1 1 2 2
5 7 9 8 5 5 6 7 7 10 10 9 10 10 6 7 8 7 7 6 6 5 5 4 4 4 4 3 2 2 2 1 1 1 1 1 0 0 1 1 1 1 2 3
6 7 10 9 7 6 7 6 6 7 7 9 11 10 7 7 7 7 7 7 6 6 5 5 4 4 4 3 3 2 2 1 1 1 1 1 1 2 1 1 2 2 2 2
4 7 8 10 9 7 8 7 7 7 9 9 9 10 9 8 8 7 7 6 6 6 5 5 5 4 4 3 2 2 2 1 1 1 1 1 1 2 2 2 2 2 2 2
6 8 7 7 7 7 7 8 7 8 8 9 8 8 8 8 8 7 6 6 6 6 5 5 5 4 3 3 2 2 2 1 1 1 1 1 1 1 1 0 0 1 0 0
5 8 7 8 7 7 8 7 7 7 7 7 7 8 7 7 6 7 6 6 6 6 5 4 4 4 3 3 3 2 2 1 1 1 1 1 1 0 0 0 -0 -0 -0 -0
6 7 9 11 8 8 10 8 8 7 6 7 8 7 8 9 8 8 6 6 6 5 5 5 4 4 3 3 2 2 2 1 1 1 1 1 1 1 0 0 0 0 0 -0
6 8 8 10 9 14 8 5 6 7 6 7 7 8 8 8 7 6 5 5 5 4 4 4 4 3 3 2 2 1 1 1 1 1 1 1 1 1 1 1 1 1 0 1
5 7 9 11 11 9 8 7 7 8 8 7 8 8 8 7 9 7 4 4 4 4 3 3 2 2 2 2 1 1 1 1 1 1 1 1 1 1 1 1 1 1 1 0
5 5 8 10 12 14 9 6 4 5 9 6 6 7 7 5 10 8 5 3 3 3 3 3 2 2 2 1 1 1 2 1 1 1 1 -0 -1 -0 0 -0 -0 -0 -0 1
8 9 11 10 11 9 7 5 4 10 10 5 6 6 6 7 6 5 4 4 3 3 3 2 2 2 2 1 1 1 1 1 0 -1 -0 -1 -1 -1 -1 -0 -1 -1 0 0
9 10 11 10 13 13 5 5 8 7 5 4 4 5 5 5 5 5 4 4 3 3 3 2 2 2 1 1 1 1 2 0 -0 -0 -0 -0 -0 0 0 1 0 0 1 1
10 7 10 10 11 7 5 5 4 4 4 4 4 4 4 4 4 4 4 4 3 3 3 2 2 2 1 1 1 2 1 -0 -0 -0 0 0 0 0 0 1 1 1 1 2
6 6 7 9 8 7 4 4 3 3 4 3 3 3 3 4 3 3 3 3 3 3 3 2 2 2 2 1 1 1 1 0 0 1 1 1 1 1 1 1 1 1 2 2
7 6 8 8 6 5 4 4 3 3 3 3 3 3 3 3 3 3 3 2 2 3 2 2 2 2 2 1 1 0 0 0 1 1 1 1 1 1 1 1 1 1 0 1
5 8 9 10 5 5 5 3 3 3 3 3 3 3 2 2 2 2 3 2 2 2 2 2 2 2 2 1 1 1 -0 0 1 1 1 1 1 1 1 1 1 2 3 4